Location: De Greiden
(52.9496°N, 5.9137°E)
Time: 23:39:58
(UTC+00:00)

NOSS 2-1 (E) - Pass Details

Date: 24 January 2021
Orbit: 434 x 1768 km, 63.3° (Epoch: 27 February)

Event Time Altitude Azimuth Distance (km) Brightness Sun altitude
Rises 17:45:01 0° 189° (S) 2,427 6.9 -14.6°
Reaches altitude 10° 17:47:23 10° 172° (S) 1,539 5.7 -14.9°
Enters shadow 17:49:42 21° 127° (SE) 1,054 4.4 -15.2°
